Temp
45 47 47 48 48 40 40 41 37 36 36 36 36 35 35 34 34 34 34 34 34 35 37 36 36 38 38 39 39 39 38 38 34 38 38 36 34 36 39 40 40 40 41
37 41 39 40 38 36 36 35 35 36 36 35 35 35 35 34 34 34 33 33 34 33 33 34 34 36 35 36 37 36 37 37 34 32 36 36 35 36 35 34 36 37 38
34 35 36 35 36 35 35 35 36 36 36 35 35 35 35 34 33 34 34 33 33 33 33 33 33 33 32 36 36 35 35 34 35 33 33 36 37 38 37 36 36 37 37
34 34 34 34 35 35 35 34 35 35 34 35 36 35 35 34 33 33 33 32 32 32 33 33 33 33 33 33 33 33 33 33 33 33 33 33 34 36 35 34 35 38 36
32 32 32 33 34 34 34 33 34 34 34 34 33 33 33 33 33 32 32 32 32 31 32 32 32 33 34 35 34 34 33 32 33 32 31 33 32 32 31 34 31 33 34
30 29 30 31 32 32 32 32 32 32 32 33 33 33 32 33 35 35 33 32 31 31 31 31 33 32 33 34 35 35 36 33 32 32 32 31 32 33 34 31 29 29 31
29 29 29 29 28 29 30 30 30 31 32 32 32 32 32 32 35 35 34 32 32 32 32 32 32 33 33 34 35 35 35 36 36 35 31 32 32 34 32 28 28 28 29
28 28 29 28 28 28 28 28 28 30 31 31 31 31 31 32 36 36 34 33 32 32 32 32 32 33 33 33 33 33 34 34 34 34 34 35 35 35 32 32 31 29 30
27 26 27 28 27 28 27 27 28 30 30 30 30 29 30 30 35 36 34 31 31 32 33 33 33 33 34 33 31 30 31 33 35 36 35 34 35 35 34 31 27 26 27
26 26 26 26 27 26 26 26 27 28 27 28 28 29 29 29 32 33 33 32 30 30 32 33 31 34 34 34 33 31 29 31 32 31 31 33 35 33 35 32 32 27 28
25 24 25 25 25 26 25 26 26 26 26 26 26 26 27 27 29 33 34 31 30 29 30 30 31 33 34 34 35 32 32 33 32 31 30 31 31 31 31 32 32 31 30
23 23 23 24 24 25 24 24 24 24 24 24 24 23 25 26 27 31 32 33 33 31 30 32 32 33 34 34 34 34 35 34 32 31 30 30 29 30 31 32 32 33 34
22 21 21 22 23 23 23 22 22 23 23 22 22 23 23 24 25 28 31 33 33 31 32 32 32 33 33 31 31 31 30 31 31 30 30 30 32 33 31 30 30 30 30
20 19 20 20 20 21 22 22 23 22 22 22 22 23 24 24 25 28 29 31 31 30 31 30 30 30 29 28 27 28 28 29 28 29 29 30 31 29 28 30 29 29 28
19 19 20 20 20 20 21 22 22 23 24 24 24 25 23 23 26 28 28 28 28 28 25 26 26 26 26 26 26 25 26 26 25 27 27 27 28 29 28 29 28 28 26
19 20 21 21 21 21 21 21 24 24 25 26 26 26 25 27 28 29 29 29 29 28 25 24 24 25 25 25 24 24 24 21 25 24 25 25 25 26 26 27 26 25 24
18 19 21 19 20 20 20 21 20 22 25 28 28 27 27 27 29 29 30 31 31 30 25 25 25 25 24 25 24 24 23 23 20 22 22 23 23 23 22 23 23 24 23
16 16 19 20 20 19 19 19 20 20 19 20 22 24 26 27 29 29 30 31 28 30 28 26 25 25 25 25 24 23 22 22 20 20 20 20 20 20 20 20 21 20 21
16 18 17 18 18 18 18 18 18 18 18 19 17 19 17 21 23 26 28 26 25 25 25 24 24 25 24 23 23 22 21 21 20 19 18 17 17 17 17 18 19 16 16
14 11 12 17 17 16 16 16 16 16 17 17 17 19 17 14 17 18 19 20 20 21 23 21 22 21 20 20 20 19 18 17 16 15 15 15 15 14 14 14 15 15 16
15 16 12 15 15 15 16 15 16 16 16 16 17 18 17 16 18 17 17 16 16 17 17 17 18 17 16 16 15 16 14 16 15 14 13 13 12 11 12 13 13 14 13
11 13 13 13 14 14 13 14 14 14 14 14 15 14 18 18 18 17 16 16 16 16 16 16 15 15 15 14 14 14 13 12 13 11 11 9 10 11 9 10 10 10 11
9 10 10 9 10 7 9 11 11 12 12 12 12 12 12 12 13 13 13 13 13 12 12 11 11 11 12 10 12 13 12 11 11 11 10 9 8 9 8 8 8 6 7
8 8 9 9 9 8 8 9 9 5 7 9 10 10 9 9 9 10 9 10 10 10 9 7 6 7 9 9 9 9 10 11 11 9 8 8 8 7 6 6 6 5 5
5 5 5 6 6 7 7 6 7 7 7 7 8 8 8 8 8 8 8 8 6 6 7 5 5 6 5 4 6 6 7 6 6 6 7 6 6 5 4 4 5 5 5
5 4 4 5 3 4 4 5 6 6 6 6 7 7 7 8 8 8 7 5 4 3 4 5 5 3 4 5 5 5 2 4 2 1 6 7 5 5 5 4 3 3 4
MSLP
1001.38 1001.75 1002.29 1002.56 1003.01 1003.78 1004.64 1005.22 1005.91 1006.74 1007.58 1008.67 1009.63 1010.51 1011.51 1012.61 1013.64 1014.59 1015.28 1016.00 1016.66 1017.25 1017.66 1018.00 1018.36 1018.71 1018.96 1019.39 1019.75 1019.91 1020.00 1020.18 1020.31 1020.22 1020.69 1020.98 1021.08 1021.00 1020.96 1020.94 1020.95 1020.89 1020.63
1001.58 1001.75 1002.17 1002.66 1003.22 1004.00 1004.63 1005.09 1005.80 1006.58 1007.62 1008.32 1009.23 1010.21 1011.08 1012.04 1013.03 1013.92 1014.75 1015.44 1016.06 1016.69 1017.23 1017.70 1018.06 1018.46 1018.84 1019.14 1019.54 1019.70 1019.87 1020.03 1020.33 1020.27 1020.28 1020.40 1020.59 1020.49 1020.66 1020.79 1020.69 1020.63 1020.36
1002.03 1002.10 1002.44 1002.92 1003.40 1003.94 1004.52 1005.24 1005.61 1006.49 1006.81 1007.69 1008.76 1009.78 1010.63 1011.56 1012.60 1013.40 1014.14 1014.84 1015.62 1016.24 1016.77 1017.28 1017.76 1018.24 1018.65 1018.71 1019.19 1019.47 1019.68 1019.96 1020.09 1020.18 1019.96 1020.08 1020.05 1020.12 1020.08 1020.16 1020.17 1019.94 1019.71
1002.74 1002.66 1002.86 1003.14 1003.48 1003.93 1004.44 1004.96 1005.74 1006.00 1007.05 1007.64 1007.94 1008.73 1010.09 1011.22 1012.18 1013.08 1013.95 1014.54 1015.29 1015.94 1016.45 1016.96 1017.39 1017.97 1018.25 1018.55 1018.94 1019.20 1019.32 1019.49 1019.67 1019.67 1019.54 1019.58 1019.67 1019.70 1019.83 1019.66 1019.44 1019.38 1019.28
1003.42 1003.45 1003.54 1003.58 1003.84 1004.24 1004.72 1005.19 1005.55 1006.32 1006.55 1007.53 1008.14 1008.89 1009.72 1010.88 1011.80 1012.74 1013.51 1014.26 1015.01 1015.73 1016.36 1016.78 1017.19 1017.50 1017.79 1018.20 1018.49 1018.63 1018.91 1019.02 1019.15 1019.10 1019.06 1019.12 1019.07 1019.40 1019.43 1019.17 1019.23 1019.17 1019.08
1004.16 1004.25 1004.37 1004.34 1004.47 1004.77 1005.20 1005.57 1006.08 1006.45 1007.20 1007.71 1008.30 1008.69 1009.66 1010.52 1011.41 1012.48 1013.36 1014.18 1014.91 1015.48 1016.05 1016.61 1016.83 1017.27 1017.52 1017.88 1018.06 1018.26 1018.39 1018.50 1018.64 1018.48 1018.72 1018.55 1018.69 1019.04 1019.30 1019.44 1019.35 1019.08 1018.50
1004.99 1004.86 1004.96 1005.05 1005.17 1005.46 1005.79 1006.13 1006.48 1007.10 1007.67 1008.22 1008.75 1009.10 1009.98 1010.72 1011.55 1012.50 1013.33 1013.96 1014.64 1015.27 1015.66 1016.07 1016.45 1016.74 1017.16 1017.37 1017.56 1017.61 1017.75 1017.99 1018.22 1018.32 1018.41 1018.51 1018.73 1018.98 1019.22 1019.35 1019.56 1019.26 1019.08
1005.91 1005.70 1005.88 1005.75 1005.97 1006.14 1006.39 1006.84 1007.33 1007.80 1008.24 1008.72 1009.14 1009.56 1010.19 1010.83 1011.64 1012.39 1013.03 1013.67 1014.32 1014.94 1015.29 1015.64 1016.02 1016.24 1016.51 1016.92 1017.11 1017.04 1017.02 1017.30 1017.53 1017.78 1017.87 1017.99 1018.20 1018.47 1019.02 1019.23 1019.22 1019.45 1019.42
1006.72 1006.71 1006.73 1006.76 1006.62 1006.97 1007.20 1007.54 1007.99 1008.37 1008.78 1009.10 1009.52 1010.00 1010.53 1011.17 1011.50 1012.02 1012.65 1013.25 1013.92 1014.40 1014.85 1015.20 1015.54 1015.75 1015.90 1016.29 1016.53 1016.68 1016.64 1016.71 1017.21 1017.43 1017.43 1017.57 1018.09 1018.13 1018.26 1018.88 1019.16 1019.20 1018.76
1007.56 1007.66 1007.52 1007.51 1007.49 1007.57 1007.98 1008.17 1008.44 1008.73 1009.10 1009.56 1010.03 1010.48 1010.88 1011.25 1011.58 1012.05 1012.50 1012.91 1013.50 1014.04 1014.35 1014.72 1015.00 1015.10 1015.29 1015.65 1015.86 1016.03 1016.25 1016.30 1016.73 1017.16 1017.41 1017.17 1017.02 1017.41 1017.71 1018.06 1018.35 1018.42 1018.51
1008.22 1008.29 1008.37 1008.12 1008.16 1008.17 1008.59 1008.80 1008.99 1009.19 1009.55 1009.95 1010.33 1010.74 1011.10 1011.54 1011.77 1011.80 1012.14 1012.69 1012.97 1013.43 1013.81 1014.15 1014.55 1014.71 1014.85 1015.12 1015.19 1015.56 1015.52 1015.93 1016.35 1016.74 1016.79 1017.08 1017.04 1016.98 1017.38 1017.60 1017.58 1017.73 1017.65
1009.26 1009.14 1009.02 1008.86 1008.87 1008.87 1009.04 1009.18 1009.43 1009.61 1009.84 1010.29 1010.61 1010.99 1011.33 1011.71 1011.89 1011.75 1011.98 1012.30 1012.67 1012.92 1013.25 1013.59 1013.79 1014.20 1014.41 1014.42 1014.83 1015.06 1015.02 1015.51 1015.80 1015.84 1016.05 1016.30 1016.62 1016.34 1016.53 1017.04 1017.13 1017.22 1017.11
1009.80 1009.77 1009.67 1009.52 1009.49 1009.50 1009.49 1009.65 1009.89 1010.10 1010.00 1010.43 1010.65 1010.85 1011.12 1011.63 1011.99 1012.06 1011.85 1011.88 1012.35 1012.77 1013.04 1013.28 1013.62 1013.97 1014.08 1014.39 1014.70 1014.97 1015.04 1015.25 1015.37 1015.31 1015.44 1015.67 1015.74 1016.17 1016.31 1016.46 1016.76 1016.81 1016.90
1010.30 1010.19 1010.13 1010.03 1010.03 1009.97 1009.95 1009.98 1010.04 1010.10 1010.23 1010.54 1010.64 1010.66 1010.70 1011.18 1011.66 1011.77 1011.79 1011.72 1012.18 1012.60 1012.82 1013.40 1013.63 1014.04 1014.32 1014.61 1014.68 1014.86 1015.22 1015.34 1015.50 1015.48 1015.58 1015.64 1015.81 1015.89 1015.87 1016.06 1016.14 1016.29 1016.42
1010.69 1010.65 1010.52 1010.39 1010.34 1010.32 1010.24 1010.20 1010.12 1010.45 1010.56 1010.57 1010.53 1010.53 1010.46 1010.77 1011.34 1011.67 1011.98 1012.04 1012.34 1012.78 1013.40 1013.81 1013.94 1014.22 1014.34 1014.40 1014.86 1015.05 1015.12 1015.27 1015.37 1015.46 1015.70 1015.77 1015.52 1015.42 1015.81 1015.87 1015.81 1015.95 1016.12
1011.05 1010.87 1010.75 1010.75 1010.70 1010.52 1010.46 1010.57 1010.62 1010.68 1010.66 1010.63 1010.48 1010.55 1010.96 1011.00 1011.32 1011.79 1011.99 1012.20 1012.58 1012.96 1013.34 1013.64 1013.78 1014.16 1014.07 1014.33 1014.39 1014.70 1014.92 1015.40 1015.32 1015.51 1015.49 1015.47 1015.43 1015.51 1015.72 1015.85 1015.92 1015.87 1015.83
1011.37 1011.13 1010.94 1010.93 1010.74 1010.63 1010.66 1010.57 1010.56 1010.78 1010.61 1010.46 1010.59 1010.89 1010.94 1011.01 1011.17 1011.43 1011.71 1011.94 1012.25 1012.66 1013.01 1013.36 1013.46 1013.76 1013.70 1013.98 1014.28 1014.73 1014.92 1015.23 1015.62 1015.73 1015.58 1015.33 1015.39 1015.40 1015.64 1015.80 1015.72 1015.88 1015.80
1011.45 1011.27 1011.03 1010.88 1010.82 1010.71 1010.66 1010.66 1010.67 1010.63 1010.74 1010.86 1011.10 1010.98 1010.85 1010.83 1011.01 1011.30 1011.47 1011.70 1012.04 1012.17 1012.51 1012.81 1013.05 1013.29 1013.55 1013.81 1014.18 1014.56 1014.77 1015.10 1015.35 1015.38 1015.46 1015.53 1015.58 1015.62 1015.56 1015.47 1015.53 1015.63 1015.72
1011.28 1011.01 1010.94 1010.85 1010.89 1010.98 1010.98 1010.93 1010.91 1010.94 1010.90 1010.94 1011.28 1011.37 1011.63 1011.55 1011.56 1011.72 1011.86 1011.67 1011.90 1012.18 1012.42 1012.71 1012.94 1013.25 1013.32 1013.50 1014.01 1014.30 1014.34 1014.76 1014.91 1014.96 1015.38 1015.54 1015.62 1015.84 1015.82 1015.82 1015.67 1015.72 1015.81
1011.01 1010.78 1010.73 1010.67 1010.71 1010.85 1010.91 1010.93 1010.98 1011.01 1011.03 1011.09 1011.21 1011.25 1011.65 1012.10 1011.92 1011.97 1012.27 1012.10 1012.09 1012.46 1012.60 1012.61 1012.69 1013.10 1013.44 1013.50 1013.76 1014.00 1014.16 1014.65 1014.88 1015.02 1015.17 1015.41 1015.68 1015.91 1015.82 1015.77 1015.71 1015.67 1015.54
1010.68 1010.52 1010.56 1010.55 1010.51 1010.51 1010.57 1010.63 1010.66 1010.75 1010.86 1010.97 1011.10 1011.28 1011.53 1011.73 1011.70 1011.88 1012.05 1012.09 1012.22 1012.42 1012.54 1012.76 1013.00 1013.16 1013.31 1013.41 1013.70 1013.85 1014.15 1014.25 1014.51 1014.76 1015.02 1015.29 1015.51 1015.69 1015.79 1015.69 1015.64 1015.62 1015.62
1010.66 1010.38 1010.31 1010.29 1010.30 1010.40 1010.47 1010.57 1010.69 1010.78 1010.84 1010.94 1011.01 1011.30 1011.21 1011.26 1011.40 1011.56 1011.69 1011.79 1012.03 1012.23 1012.32 1012.55 1012.71 1012.87 1012.97 1013.13 1013.30 1013.46 1013.81 1013.96 1014.28 1014.67 1014.88 1015.20 1015.46 1015.55 1015.78 1015.71 1015.65 1015.56 1015.55
1010.61 1010.43 1010.35 1010.34 1010.37 1010.40 1010.44 1010.45 1010.48 1010.51 1010.53 1010.65 1010.80 1010.98 1011.17 1011.22 1011.24 1011.31 1011.29 1011.46 1011.70 1011.90 1012.05 1012.21 1012.34 1012.52 1012.76 1013.09 1013.09 1013.25 1013.50 1013.67 1013.95 1014.33 1014.60 1014.89 1015.13 1015.30 1015.52 1015.53 1015.57 1015.67 1015.59
1010.50 1010.37 1010.26 1010.20 1010.25 1010.31 1010.27 1010.20 1010.25 1010.43 1010.43 1010.39 1010.43 1010.51 1010.65 1010.70 1010.73 1010.72 1010.88 1011.06 1011.27 1011.44 1011.64 1011.87 1012.09 1012.28 1012.47 1012.64 1012.89 1013.19 1013.32 1013.44 1013.68 1014.03 1014.41 1014.69 1014.90 1015.12 1015.32 1015.37 1015.47 1015.52 1015.57
1010.18 1010.08 1010.02 1009.93 1009.84 1009.78 1009.78 1009.82 1009.81 1009.84 1009.87 1009.90 1009.87 1009.92 1009.96 1010.06 1010.13 1010.22 1010.30 1010.51 1010.76 1010.95 1011.12 1011.37 1011.67 1011.82 1012.11 1012.39 1012.51 1012.61 1012.73 1013.01 1013.38 1013.72 1014.10 1014.45 1014.61 1014.88 1015.20 1015.35 1015.38 1015.36 1015.36
1009.47 1009.42 1009.37 1009.36 1009.35 1009.34 1009.27 1009.21 1009.15 1009.21 1009.23 1009.20 1009.22 1009.24 1009.29 1009.36 1009.46 1009.60 1009.82 1010.08 1010.27 1010.47 1010.69 1010.90 1011.09 1011.37 1011.54 1011.66 1011.78 1011.99 1012.30 1012.65 1013.07 1013.45 1013.76 1014.09 1014.39 1014.63 1014.86 1014.94 1015.05 1015.07 1015.04
Wind_Speed
9 10 11 11 12 7 8 8 9 10 13 15 15 15 14 13 11 10 9 10 10 9 9 9 9 8 6 6 6 5 6 6 7 4 3 2 2 4 4 4 5 5 6
5 7 6 7 8 9 10 12 12 13 12 14 14 14 14 14 13 13 12 10 11 10 9 8 8 6 6 5 6 7 7 7 6 8 5 5 6 5 4 4 5 4 6
3 6 7 8 10 10 10 10 12 10 14 15 15 15 15 14 13 11 11 11 10 9 9 9 8 8 7 7 7 6 6 5 7 7 6 4 5 5 6 5 5 7 6
2 4 6 7 8 8 9 11 11 13 13 12 14 15 14 13 12 11 10 10 9 8 8 8 8 9 8 8 7 8 6 7 7 7 7 6 6 4 4 6 6 5 6
4 4 4 5 6 7 8 8 9 10 12 12 13 12 12 11 8 11 10 9 9 8 7 7 7 8 11 11 7 9 9 8 8 7 7 7 6 5 6 2 3 4 5
5 5 5 6 7 7 8 9 9 9 9 11 11 12 13 8 18 17 12 8 8 8 9 9 8 9 12 16 16 16 11 10 9 7 7 7 8 6 4 4 3 3 2
6 7 7 7 8 8 8 9 9 9 9 9 10 11 10 9 19 18 16 7 8 8 8 8 8 7 10 10 15 17 17 17 16 8 9 8 7 6 4 3 4 3 3
6 7 6 8 8 8 8 9 8 7 9 8 9 9 9 7 17 17 17 9 8 8 9 9 9 9 10 11 10 10 10 9 8 8 10 9 8 5 6 4 3 3 4
6 6 5 4 7 6 7 8 7 8 7 6 7 8 8 7 16 17 14 9 8 9 8 9 10 10 11 15 9 10 9 9 8 13 12 8 12 12 9 5 5 5 5
5 5 5 4 5 7 6 6 4 5 6 6 7 7 7 7 13 15 14 6 8 6 8 9 12 11 13 15 10 9 9 8 7 6 5 9 11 10 16 10 6 7 6
5 5 4 5 5 6 5 5 5 6 6 5 5 5 5 6 8 14 15 7 6 6 6 6 6 15 14 15 15 8 8 6 8 6 5 5 5 6 6 6 6 8 7
4 4 4 4 3 4 5 5 4 5 6 5 6 5 3 3 6 10 16 15 13 8 7 6 6 12 12 13 11 13 14 11 6 6 6 5 6 6 6 7 8 9 8
3 3 3 3 3 3 4 4 4 4 5 5 5 5 5 4 4 11 11 11 12 7 5 7 8 10 8 7 6 4 3 1 2 3 6 6 5 5 4 3 6 7 8
2 2 2 2 2 2 2 2 2 2 2 3 4 5 5 5 5 4 4 7 8 6 7 4 6 7 5 4 2 3 1 2 3 4 5 3 1 3 4 4 4 4 5
2 1 0 0 1 2 1 1 2 0 2 4 4 5 6 6 6 7 6 5 6 7 6 4 3 3 4 3 2 2 2 3 3 4 5 6 5 4 5 3 4 4 6
2 2 2 2 2 2 3 3 2 3 5 4 5 4 3 4 10 10 10 9 10 12 3 3 4 5 5 4 3 3 2 3 3 3 3 4 4 5 5 4 4 5 7
3 2 2 2 2 2 2 3 4 2 1 3 7 8 9 8 9 8 8 9 12 13 4 5 5 5 4 4 4 4 4 3 2 3 3 3 4 4 4 5 4 5 6
4 4 3 3 3 3 2 2 2 3 4 3 3 4 4 3 5 6 7 8 6 9 6 6 6 6 6 6 6 5 5 4 4 4 4 4 4 4 5 5 5 6 6
4 4 4 3 3 2 3 3 2 2 2 2 1 1 2 2 1 5 8 5 6 6 6 5 5 5 5 5 5 5 5 5 5 4 4 4 4 4 6 6 5 5 5
5 6 4 4 4 4 4 4 4 4 4 4 4 4 3 2 3 4 4 4 4 5 5 5 4 4 5 5 5 4 4 5 5 5 5 4 4 5 6 6 6 6 6
4 4 4 4 4 4 4 5 5 5 5 5 5 5 7 5 5 5 5 5 5 5 5 5 4 4 4 4 4 4 5 5 5 5 5 5 4 5 5 6 6 6 6
3 4 3 4 4 4 5 4 5 5 6 6 5 5 10 7 6 6 6 6 5 5 4 5 5 5 5 5 5 6 6 6 5 5 5 4 4 4 4 5 5 6 6
4 4 4 4 4 3 4 4 4 5 5 5 5 4 5 6 6 7 6 5 5 5 5 5 5 5 4 4 5 5 6 6 5 5 5 4 4 4 4 5 5 5 6
4 5 5 5 4 5 5 6 6 6 7 6 6 6 6 6 7 7 6 5 5 5 4 4 5 6 5 5 5 6 6 5 4 5 6 5 4 4 4 4 5 6 5
6 6 6 6 6 6 6 7 7 7 7 7 7 6 6 6 6 6 6 5 4 5 5 5 4 6 8 9 8 8 7 7 6 5 5 5 6 5 4 4 5 4 5
8 8 8 7 7 7 7 7 7 7 7 7 7 7 7 7 6 6 6 6 5 5 6 5 6 9 8 8 9 9 8 9 8 8 7 6 6 5 5 5 5 4 4
Wind_Direction
196 198 202 200 198 157 169 180 156 145 156 164 168 163 161 159 159 159 163 161 168 172 181 183 188 179 186 192 200 211 218 221 240 223 220 183 233 221 238 254 269 275 283
173 170 162 154 149 155 169 156 158 162 165 167 166 165 162 162 164 167 164 167 173 175 177 179 181 180 184 187 202 214 222 221 234 247 254 228 223 230 239 248 260 258 276
132 145 148 157 164 171 169 171 163 169 165 160 162 167 164 163 163 167 167 166 172 176 176 181 180 179 190 200 211 215 221 220 227 245 254 245 255 258 254 238 261 287 268
41 127 150 165 168 168 160 160 164 157 159 166 166 160 161 160 161 159 160 160 165 172 175 183 181 191 198 197 210 222 216 218 227 237 247 248 246 247 251 273 274 283 287
64 73 98 106 123 138 147 151 151 162 155 158 150 146 143 151 155 158 160 161 164 172 184 188 195 198 207 216 216 220 219 222 230 230 245 247 245 228 242 267 262 285 284
90 89 94 111 116 122 128 130 127 124 133 141 150 147 149 150 161 165 158 161 167 183 195 204 208 205 217 222 224 229 220 221 228 231 243 246 248 249 252 248 263 259 230
67 86 92 98 98 99 105 113 117 122 129 131 134 135 140 136 164 170 168 160 174 192 198 200 205 208 215 222 229 232 230 230 235 241 247 253 260 250 245 212 229 240 269
47 61 70 90 94 95 96 94 97 113 125 133 136 136 140 149 171 176 172 172 184 197 203 205 211 212 211 214 220 225 231 233 235 229 229 237 234 216 209 219 237 251 265
55 54 56 73 105 99 106 115 118 127 129 129 136 141 150 163 179 183 177 167 184 196 202 208 210 216 215 212 218 228 232 238 242 241 236 224 231 228 206 186 222 233 265
56 60 63 78 89 106 112 114 105 121 127 137 145 159 164 165 191 193 188 167 186 194 200 213 210 217 214 220 223 216 236 235 226 240 253 254 246 234 227 210 215 225 227
52 51 60 76 88 99 103 110 120 120 125 127 131 143 154 176 197 200 200 177 182 183 198 199 206 221 224 227 227 222 224 220 226 236 250 253 243 238 239 238 215 223 228
61 65 67 73 86 105 115 113 118 131 132 141 145 140 143 166 197 214 205 199 196 197 199 206 201 211 225 231 229 233 232 235 214 219 231 238 244 235 230 236 242 236 242
63 69 75 77 86 103 123 124 131 157 148 155 168 168 161 170 206 208 212 208 200 191 191 197 195 207 190 138 103 92 91 122 282 226 224 234 241 245 224 217 232 243 246
81 76 53 77 97 101 118 127 140 148 152 168 182 174 153 153 173 188 188 199 186 158 171 156 143 134 132 127 138 124 150 192 239 252 252 263 238 211 221 219 234 225 242
4 -0 241 130 174 145 99 141 147 186 212 189 186 173 161 163 176 172 162 143 143 142 123 136 151 167 179 171 190 193 191 198 213 228 243 247 248 242 243 222 234 249 252
281 284 270 225 200 187 169 150 170 184 189 174 166 160 160 153 166 176 177 175 172 155 144 173 187 203 203 201 197 198 196 218 214 210 219 241 251 250 255 240 252 250 256
249 227 228 239 218 194 186 188 166 126 39 195 181 173 178 168 165 172 185 192 187 179 197 195 202 203 210 209 207 207 216 204 159 222 231 225 233 241 237 252 254 259 261
240 228 217 212 219 204 197 196 190 181 177 171 21 63 76 136 192 212 212 211 212 219 218 216 213 213 214 214 211 214 217 214 215 228 232 237 241 245 247 238 236 241 248
250 237 213 202 205 220 204 194 201 209 213 184 182 247 42 59 254 240 236 228 224 228 221 217 217 221 218 212 218 222 216 226 227 221 231 235 240 246 250 254 257 255 259
244 235 232 228 203 203 204 207 204 213 215 215 211 215 166 147 205 210 222 224 224 238 241 242 231 229 230 228 223 221 224 222 230 230 237 238 235 234 248 255 251 254 245
268 253 226 227 223 219 219 219 220 217 223 225 225 211 204 211 214 216 218 221 227 229 228 233 234 231 223 219 219 219 224 234 225 226 232 235 229 235 243 259 266 259 262
261 261 248 241 238 231 228 227 225 224 224 226 219 213 230 231 232 234 231 231 231 237 244 244 243 238 226 218 219 223 227 229 228 219 228 229 237 242 248 258 265 264 265
246 240 231 232 237 244 241 238 238 239 241 241 239 233 221 233 237 238 239 241 239 241 236 229 236 236 227 219 221 221 221 219 216 210 213 223 224 236 239 251 254 256 257
254 251 253 252 244 242 244 245 241 239 250 248 246 240 236 237 243 247 248 246 238 235 225 214 221 226 224 214 208 212 217 218 202 201 204 215 221 213 234 239 246 251 259
242 244 246 252 256 255 255 249 250 250 248 245 248 247 247 242 243 242 244 239 236 236 232 222 225 228 225 220 217 214 211 213 203 196 191 206 224 226 229 234 244 251 254
246 245 247 245 243 242 241 244 244 243 241 239 239 239 239 236 236 234 229 225 226 228 230 227 228 225 230 232 228 217 206 210 206 194 198 204 210 215 215 222 228 241 251